Simultaneous Nadir Overpasses (SNOs) Predictions

Prediction of SNOs between LANDSAT-8 and METOP-B Satellite Orbit:

Table of predicted SNOs for the next 14.0 days since TLE Epoch: 10/22/2022
Index Date (LANDSAT-8) Time (LANDSAT-8) Lat,Lon (LANDSAT-8) SZA (LANDSAT-8 ) Date (METOP-B) Time (METOP-B) Lat,Lon (METOP-B) SZA (METOP-B ) Distance(km) Time Diff (sec)
1 10/22/2022 19:47:28 81.12, -76.92 94.76 10/22/2022 19:46:58 81.12, -76.84 94.76 1.35 30
2 10/22/2022 20:36:54 -81.14, 91.03 85.18 10/22/2022 20:37:38 -81.13, 90.93 85.18 1.81 44
3 10/25/2022 15:21:44 81.11, -10.64 95.72 10/25/2022 15:21:21 81.11, -10.63 95.72 0.40 23
4 10/25/2022 16:11:10 -81.13, 157.32 84.22 10/25/2022 16:12:01 -81.13, 157.17 84.22 2.69 51
5 10/28/2022 10:56:00 81.12, 55.89 96.69 10/28/2022 10:55:44 81.12, 55.92 96.69 0.54 16
6 10/28/2022 11:45:26 -81.14,-136.13 83.25 10/28/2022 11:46:24 -81.13,-136.27 83.24 2.44 58
7 10/31/2022 06:30:16 81.12, 122.30 97.62 10/31/2022 06:30:07 81.12, 122.41 97.63 1.95 9
8 10/31/2022 07:19:42 -81.14, -69.69 82.32 10/31/2022 07:20:47 -81.14, -69.75 82.30 1.02 65
9 11/03/2022 01:15:26 -80.57, 14.11 82.63 11/03/2022 01:14:12 -80.75, 13.49 82.57 23.72 74
10 11/03/2022 02:04:32 81.11,-171.39 98.49 11/03/2022 02:04:31 81.11,-171.52 98.48 2.17 1



Historial Predications of SNOs between LANDSAT-8 and METOP-B
